Weather History for Du Bois, PA

Change the Weather History Date:

Wednesday, February 20, 2013

  Actual Average Record
Temperature  
Mean Temperature 16 °F 27 °F  
Max Temperature 19 °F 36 °F 58 °F (1994)
Min Temperature 13 °F 19 °F -5 °F (1966)
Degree Days  
Heating Degree Days 49 38  
Month to date heating degree days 848 788  
Since 1 July heating degree days 4429 4732  
Cooling Degree Days 0 0  
Month to date cooling degree days 0 0  
Year to date cooling degree days 0 0  
Moisture  
Dew Point 9 °F    
Average Humidity 68    
Maximum Humidity 80    
Minimum Humidity 56    
Precipitation  
Precipitation T in 0.08 in 0.70 in (2007)
Month to date precipitation 0.52 1.61  
Sea Level Pressure  
Sea Level Pressure 29.95 in    
Wind  
Wind Speed 17 mph (West)    
Max Wind Speed 26 mph    
Max Gust Speed 37 mph    
Visibility 4 miles    
Events Snow    
T = Trace of Precipitation, MM = Missing Value Source: NWS Daily Summary

Daily Weather History Graph

Daily Weather History Graph

Search for Another Location

Airport:

Trip Planner

Search our weather history database for the weather conditions in past years. The results will help you decide how hot, cold, wet, or windy it might be!

Date:

Astronomy

Feb. 20, 2013 Rise Set
Actual Time 7:03 AM EST 5:56 PM EST
Civil Twilight 6:35 AM EST 6:24 PM EST
Nautical Twilight 6:02 AM EST 6:56 PM EST
Astronomical Twilight 5:31 AM EST 7:28 PM EST
Moon 1:14 PM EST (2/20) 3:23 AM EST (2/20)
Length of Visible Light 11h 49m
Length of Day
10h 53m
Waxing Gibbous, 76% of the Moon is Illuminated
Feb 20
Waxing Gibbous
Feb 25
Full
Mar 4
Last Quarter
Mar 11
New
Mar 19
First Quarter

Hourly Weather History & Observations

Time (EST) Temp. Windchill Dew Point Humidity Pressure Visibility Wind Dir Wind Speed Gust Speed Precip Events Conditions
12:56 AM 18.0 °F 3.1 °F 10.9 °F 74% 29.86 in 5.0 mi West 16.1 mph - N/A   Haze
1:20 AM 17.6 °F 4.3 °F 10.4 °F 73% 29.80 in 2.5 mi West 12.7 mph 24.2 mph 0.00 in Snow Light Snow
1:53 AM 17.6 °F 2.7 °F 12.2 °F 79% 29.81 in 2.5 mi West 16.1 mph 23.0 mph 0.00 in Snow Light Snow
1:56 AM 17.1 °F 2.5 °F 12.0 °F 81% 29.88 in 2.0 mi West 15.0 mph 23.0 mph 0.00 in Snow Light Snow
2:04 AM 17.6 °F 1.3 °F 10.4 °F 73% 29.82 in 1.8 mi West 19.6 mph 28.8 mph 0.00 in Snow Light Snow
2:12 AM 15.8 °F -1.1 °F 10.4 °F 79% 29.81 in 2.5 mi West 19.6 mph 27.6 mph 0.00 in   Haze
2:28 AM 15.8 °F -0.6 °F 8.6 °F 73% 29.81 in 3.0 mi West 18.4 mph 28.8 mph 0.00 in Snow Light Snow
2:56 AM 15.1 °F 0.5 °F 10.0 °F 80% 29.89 in 2.0 mi West 13.8 mph 23.0 mph 0.00 in Snow Light Snow
3:04 AM 15.8 °F 0.3 °F 10.4 °F 79% 29.82 in 1.5 mi West 16.1 mph 21.9 mph 0.00 in Snow Light Snow
3:23 AM 15.8 °F 1.4 °F 10.4 °F 79% 29.82 in 2.0 mi West 13.8 mph 21.9 mph 0.00 in Snow Light Snow
3:30 AM 14.0 °F -3.4 °F 10.4 °F 86% 29.82 in 1.0 mi West 19.6 mph 25.3 mph 0.00 in Snow Light Snow
3:52 AM 14.0 °F -3.0 °F 8.6 °F 79% 29.83 in 3.0 mi WSW 18.4 mph 26.5 mph 0.00 in Snow Light Snow
3:56 AM 14.0 °F -2.0 °F 8.1 °F 77% 29.90 in 5.0 mi West 16.1 mph 26.5 mph 0.00 in Snow Light Snow
5:56 AM 12.9 °F -6.9 °F 6.1 °F 74% 29.94 in 6.0 mi West 25.3 mph 31.1 mph N/A   Haze
6:07 AM 12.2 °F -5.8 °F 6.8 °F 79% 29.86 in 6.0 mi WSW 19.6 mph 29.9 mph N/A   Haze
6:56 AM 12.9 °F -4.4 °F 5.0 °F 71% 29.94 in 9.0 mi WSW 18.4 mph 29.9 mph N/A   Overcast
7:56 AM 14.0 °F -3.0 °F 7.0 °F 74% 29.96 in 2.5 mi WSW 18.4 mph 25.3 mph 0.00 in   Haze
8:15 AM 14.0 °F -2.5 °F 6.8 °F 73% 29.88 in 1.5 mi West 17.3 mph 24.2 mph 0.00 in Snow Light Snow
8:56 AM 14.0 °F -3.0 °F 9.0 °F 80% 29.97 in 1.0 mi WSW 18.4 mph 26.5 mph 0.00 in Snow Light Snow
9:09 AM 14.0 °F -3.4 °F 8.6 °F 79% 29.88 in 0.8 mi West 19.6 mph 25.3 mph 0.00 in Snow Light Snow
9:32 AM 15.8 °F -1.1 °F 8.6 °F 73% 29.88 in 1.0 mi West 19.6 mph 29.9 mph 0.00 in Snow Light Snow
9:56 AM 15.1 °F -2.0 °F 9.0 °F 77% 29.97 in 2.0 mi West 19.6 mph 31.1 mph 0.00 in Snow Light Snow
10:08 AM 15.8 °F -0.2 °F 8.6 °F 73% 29.89 in 5.0 mi West 17.3 mph 27.6 mph 0.00 in   Haze
10:17 AM 15.8 °F -2.7 °F 8.6 °F 73% 29.89 in 1.8 mi West 24.2 mph 34.5 mph 0.00 in Snow Light Snow
10:56 AM 17.1 °F 0.1 °F 9.0 °F 71% 29.98 in 1.5 mi West 20.7 mph 28.8 mph 0.00 in Snow Light Snow
11:21 AM 15.8 °F -2.3 °F 10.4 °F 79% 29.90 in 0.5 mi West 23.0 mph 34.5 mph 0.00 in Snow Snow
11:36 AM 17.6 °F -0.3 °F 8.6 °F 68% 29.90 in 1.8 mi West 24.2 mph 29.9 mph 0.00 in Snow Light Snow
11:56 AM 17.1 °F 1.0 °F 10.0 °F 74% 29.99 in 1.8 mi West 18.4 mph 31.1 mph 0.00 in Snow Light Snow
12:09 PM 17.6 °F -0.3 °F 8.6 °F 68% 29.90 in 2.0 mi West 24.2 mph 31.1 mph 0.00 in Snow Light Snow
12:20 PM 17.6 °F 0.5 °F 8.6 °F 68% 29.90 in 1.5 mi West 21.9 mph 34.5 mph 0.00 in Snow Light Snow
12:24 PM 17.6 °F 0.1 °F 8.6 °F 68% 29.90 in 2.0 mi West 23.0 mph 32.2 mph 0.00 in Snow Light Snow
12:31 PM 17.6 °F 2.2 °F 10.4 °F 73% 29.91 in 1.0 mi West 17.3 mph 32.2 mph 0.00 in Snow Light Snow
12:44 PM 17.6 °F 0.1 °F 8.6 °F 68% 29.91 in 2.0 mi West 23.0 mph 34.5 mph 0.00 in   Haze
12:52 PM 17.6 °F 0.9 °F 8.6 °F 68% 29.91 in 8.0 mi West 20.7 mph 33.4 mph 0.00 in   Overcast
12:56 PM 17.1 °F 2.5 °F 9.0 °F 71% 30.00 in 9.0 mi West 15.0 mph 28.8 mph 0.00 in   Overcast
2:56 PM 18.0 °F 2.2 °F 5.0 °F 57% 30.03 in 10.0 mi WNW 18.4 mph 31.1 mph N/A   Overcast
4:56 PM 16.0 °F 0.6 °F 8.1 °F 71% 30.10 in 2.0 mi WNW 16.1 mph 24.2 mph 0.00 in Snow Light Snow
5:15 PM 15.8 °F -0.6 °F 8.6 °F 73% 30.01 in 5.0 mi West 18.4 mph 24.2 mph 0.00 in   Haze
5:23 PM 15.8 °F 0.9 °F 8.6 °F 73% 30.02 in 2.0 mi West 15.0 mph 24.2 mph 0.00 in Snow Light Snow
5:26 PM 15.8 °F 1.4 °F 8.6 °F 73% 30.02 in 3.0 mi West 13.8 mph - 0.00 in Snow Light Snow
5:49 PM 15.8 °F -0.6 °F 8.6 °F 73% 30.03 in 8.0 mi West 18.4 mph 24.2 mph 0.00 in   Overcast
5:56 PM 16.0 °F 0.1 °F 7.0 °F 68% 30.13 in 10.0 mi West 17.3 mph 24.2 mph 0.00 in   Overcast
6:56 PM 15.1 °F 1.8 °F 9.0 °F 77% 30.15 in 10.0 mi West 11.5 mph 21.9 mph 0.00 in   Overcast
7:56 PM 16.0 °F 0.6 °F 8.1 °F 71% 30.14 in 10.0 mi West 16.1 mph 20.7 mph N/A   Overcast
8:56 PM 16.0 °F 1.1 °F 9.0 °F 74% 30.15 in 4.0 mi West 15.0 mph 20.7 mph 0.00 in Snow Light Snow
9:56 PM 16.0 °F 1.7 °F 9.0 °F 74% 30.15 in 9.0 mi West 13.8 mph 23.0 mph 0.00 in   Overcast
10:56 PM 15.1 °F 1.1 °F 9.0 °F 77% 30.15 in 8.0 mi West 12.7 mph - 0.00 in   Overcast
11:26 PM 15.8 °F 1.4 °F 10.4 °F 79% 30.05 in 2.5 mi West 13.8 mph - 0.00 in Snow Light Snow
11:45 PM 15.8 °F 2.7 °F 10.4 °F 79% 30.05 in 3.0 mi West 11.5 mph - 0.00 in Snow Light Snow
11:56 PM 15.1 °F 2.5 °F 10.0 °F 80% 30.14 in 3.0 mi West 10.4 mph - 0.00 in Snow Light Snow